TimeMST,TemperatureF,Dew PointF,Humidity,Sea Level PressureIn,VisibilityMPH,Wind Direction,Wind SpeedMPH,Gust SpeedMPH,PrecipitationIn,Events,Conditions,WindDirDegrees,DateUTC
12:58 AM,39.7,34.5,82,30.21,10.0,SE,10.4,-,N/A,,Partly Cloudy,130,2012-11-14 07:58:00
1:18 AM,39.2,35.6,87,30.21,10.0,SE,6.9,-,N/A,,Mostly Cloudy,130,2012-11-14 08:18:00
1:28 AM,39.2,33.8,81,30.21,10.0,SSE,5.8,-,N/A,,Overcast,150,2012-11-14 08:28:00
1:33 AM,39.2,35.6,87,30.21,10.0,SSE,4.6,-,N/A,,Light Drizzle,150,2012-11-14 08:33:00
1:38 AM,39.2,35.6,87,30.21,10.0,SE,5.8,-,N/A,,Light Drizzle,140,2012-11-14 08:38:00
1:42 AM,39.2,35.6,87,30.21,10.0,SE,6.9,-,N/A,,Overcast,130,2012-11-14 08:42:00
1:47 AM,39.2,35.6,87,30.21,10.0,SE,5.8,-,N/A,,Overcast,130,2012-11-14 08:47:00
1:58 AM,39.7,34.9,83,30.22,10.0,ESE,3.5,-,N/A,,Overcast,120,2012-11-14 08:58:00
2:08 AM,39.2,35.6,87,30.22,10.0,East,4.6,-,N/A,,Overcast,100,2012-11-14 09:08:00
2:33 AM,39.2,39.2,100,30.22,10.0,Calm,Calm,-,N/A,,Overcast,0,2012-11-14 09:33:00
2:36 AM,39.2,39.2,100,30.22,10.0,SE,2.3,-,N/A,,Light Drizzle,140,2012-11-14 09:36:00
2:41 AM,39.2,39.2,100,30.22,10.0,ESE,3.5,-,N/A,Rain,Light Rain,110,2012-11-14 09:41:00
2:58 AM,38.7,38.7,100,30.25,10.0,SE,4.6,-,N/A,Rain,Light Rain,130,2012-11-14 09:58:00
3:30 AM,39.2,39.2,100,30.22,10.0,East,5.8,-,N/A,,Overcast,90,2012-11-14 10:30:00
3:38 AM,39.2,39.2,100,30.22,10.0,East,5.8,-,N/A,Rain,Light Rain,80,2012-11-14 10:38:00
3:58 AM,38.7,38.7,100,30.25,10.0,East,6.9,-,N/A,Rain,Light Rain,90,2012-11-14 10:58:00
4:08 AM,37.4,37.4,100,30.22,10.0,East,6.9,-,N/A,Rain,Light Rain,90,2012-11-14 11:08:00
4:28 AM,37.4,37.4,100,30.22,10.0,East,6.9,-,N/A,Rain,Light Rain,90,2012-11-14 11:28:00
4:33 AM,37.4,37.4,100,30.22,10.0,East,8.1,-,N/A,Rain,Light Rain,90,2012-11-14 11:33:00
4:43 AM,37.4,37.4,100,30.22,10.0,East,8.1,-,N/A,Rain,Light Rain,90,2012-11-14 11:43:00
4:48 AM,37.4,37.4,100,30.22,8.0,East,9.2,-,N/A,Rain,Light Rain,90,2012-11-14 11:48:00
4:58 AM,37.2,37.2,100,30.26,10.0,East,10.4,-,N/A,Rain,Light Rain,90,2012-11-14 11:58:00
5:28 AM,37.4,37.4,100,30.23,8.0,East,10.4,-,N/A,Rain,Light Rain,100,2012-11-14 12:28:00
5:43 AM,37.4,37.4,100,30.23,10.0,East,9.2,-,N/A,Rain,Light Rain,100,2012-11-14 12:43:00
5:58 AM,36.9,36.9,100,30.27,9.0,East,10.4,-,N/A,Rain,Light Rain,100,2012-11-14 12:58:00
6:08 AM,37.4,37.4,100,30.23,10.0,East,10.4,-,N/A,Rain,Light Rain,100,2012-11-14 13:08:00
6:23 AM,37.4,37.4,100,30.23,10.0,East,10.4,-,N/A,Rain,Light Rain,100,2012-11-14 13:23:00
6:33 AM,37.4,37.4,100,30.23,10.0,East,11.5,-,N/A,,Light Drizzle,100,2012-11-14 13:33:00
6:41 AM,37.4,37.4,100,30.23,10.0,East,11.5,-,N/A,,Overcast,100,2012-11-14 13:41:00
6:51 AM,37.4,37.4,100,30.23,10.0,East,10.4,-,N/A,,Overcast,100,2012-11-14 13:51:00
6:55 AM,37.4,37.4,100,30.23,10.0,East,11.5,-,N/A,,Light Drizzle,100,2012-11-14 13:55:00
6:58 AM,36.9,36.9,100,30.27,10.0,East,11.5,-,N/A,Rain,Light Rain,100,2012-11-14 13:58:00
7:08 AM,37.4,37.4,100,30.23,10.0,East,10.4,-,N/A,Rain,Light Rain,100,2012-11-14 14:08:00
7:58 AM,36.9,36.9,100,30.28,10.0,East,10.4,-,N/A,,Mostly Cloudy,100,2012-11-14 14:58:00
8:08 AM,37.4,37.4,100,30.24,10.0,East,9.2,-,N/A,,Mostly Cloudy,90,2012-11-14 15:08:00
8:58 AM,37.2,37.2,100,30.30,10.0,East,10.4,-,0.00,,Overcast,100,2012-11-14 15:58:00
9:58 AM,38.8,38.8,100,30.32,10.0,East,6.9,-,N/A,,Overcast,90,2012-11-14 16:58:00
10:18 AM,39.2,39.2,100,30.27,10.0,East,8.1,-,N/A,,Overcast,100,2012-11-14 17:18:00
10:33 AM,41.0,41.0,100,30.27,10.0,East,6.9,-,N/A,,Overcast,100,2012-11-14 17:33:00
10:58 AM,41.0,41.0,100,30.32,10.0,ESE,5.8,-,N/A,,Mostly Cloudy,120,2012-11-14 17:58:00
11:51 AM,41.0,41.0,100,30.28,10.0,ESE,5.8,-,N/A,,Mostly Cloudy,120,2012-11-14 18:51:00
11:55 AM,42.8,42.8,100,30.31,10.0,Variable,2.3,-,N/A,,Overcast,0,2012-11-14 18:55:00
12:47 PM,42.8,42.8,100,30.27,10.0,West,4.6,-,N/A,,Overcast,260,2012-11-14 19:47:00
12:55 PM,42.8,42.8,100,30.30,10.0,SW,4.6,-,N/A,,Overcast,230,2012-11-14 19:55:00
1:55 PM,42.8,42.8,100,30.29,10.0,SW,3.5,-,N/A,,Overcast,230,2012-11-14 20:55:00
2:55 PM,42.6,42.6,100,30.30,10.0,Variable,2.3,-,N/A,,Overcast,0,2012-11-14 21:55:00
3:59 PM,42.8,42.8,100,30.30,10.0,West,5.8,-,N/A,,Overcast,280,2012-11-14 22:59:00
4:37 PM,42.8,42.8,100,30.27,10.0,West,8.1,-,N/A,,Overcast,260,2012-11-14 23:37:00
5:10 PM,42.8,42.8,100,30.27,10.0,WNW,8.1,-,N/A,,Overcast,300,2012-11-15 00:10:00
5:45 PM,41.0,41.0,100,30.28,10.0,WNW,10.4,-,N/A,,Overcast,300,2012-11-15 00:45:00
5:58 PM,40.5,40.5,100,30.34,10.0,WNW,9.2,-,N/A,,Overcast,300,2012-11-15 00:58:00
6:13 PM,39.2,39.2,100,30.28,10.0,NW,9.2,-,N/A,,Overcast,310,2012-11-15 01:13:00
6:18 PM,39.2,39.2,100,30.29,10.0,WNW,10.4,-,N/A,,Overcast,300,2012-11-15 01:18:00
6:58 PM,39.0,39.0,100,30.35,8.0,WNW,8.1,-,N/A,,Overcast,300,2012-11-15 01:58:00
7:08 PM,39.2,39.2,100,30.30,8.0,WNW,6.9,-,N/A,,Overcast,300,2012-11-15 02:08:00
7:13 PM,39.2,39.2,100,30.30,8.0,NW,8.1,-,N/A,,Overcast,310,2012-11-15 02:13:00
7:53 PM,37.4,37.4,100,30.30,9.0,NW,8.1,-,N/A,,Overcast,310,2012-11-15 02:53:00
7:58 PM,37.6,37.6,100,30.35,9.0,NW,6.9,-,N/A,,Overcast,310,2012-11-15 02:58:00
8:38 PM,37.4,37.4,100,30.31,7.0,NW,6.9,-,N/A,,Overcast,310,2012-11-15 03:38:00
8:58 PM,36.7,36.7,100,30.36,8.0,WNW,6.9,-,N/A,,Overcast,290,2012-11-15 03:58:00
9:18 PM,35.6,35.6,100,30.32,8.0,NW,8.1,-,N/A,,Overcast,310,2012-11-15 04:18:00
9:58 PM,35.8,35.8,100,30.38,7.0,NW,5.8,-,N/A,,Overcast,310,2012-11-15 04:58:00
10:58 PM,36.0,36.0,100,30.38,6.0,NNE,5.8,-,N/A,,Overcast,30,2012-11-15 05:58:00
11:43 PM,35.6,35.6,100,30.33,8.0,North,3.5,-,N/A,,Overcast,360,2012-11-15 06:43:00
11:58 PM,36.3,36.3,100,30.33,6.0,East,2.3,-,N/A,,Overcast,90,2012-11-15 06:58:00